Find Starlink 2344

NORAD ID: 47885 Int'l Des: 2021-021 Owner: SPXS Country: US Constellation: starlink decayed
LEOCIRCULAR
Vis

Historical Track — 3. März 2025

3D-Globus wird geladen...

Über Starlink 2344

Beschreibung wird geladen...

Höhenverlauf

Loading altitude history...

Zweizeiliger Elementsatz

1 47885U 21021AB 25062.61827535 .16953108 12537-4 61176-3 0 9999
2 47885 53.0333 107.4292 0003705 25.5943 111.3039 16.44262142220193
Epoch: 3. März 2025 • Age: 10390 hours

Aktueller Status

Position data unavailable
Startdatum 14. März 2021
Alter 5.1 years
Verglühungsdatum 3. März 2025
Typ internet

Technische Details

Klassifizierung Payload
Masse 260.00 kg
Trockenmasse 248.00 kg
Gesamtmasse 260.00 kg
Länge 0.20 m
Durchmesser 2.80 m
Spannweite 9.00 m
Form Box + pan
Hersteller SPXS
Bus-Typ Starlink
Phasenstatus Unknown Transfer Status
Besitzer/Staat SPXS/US

Most Searched